Other Public Products
Issued by NWS Charleston, SC

Current Version | Previous Version | Graphics & Text | Print | Product List | Glossary On
Versions: 1 2 3 4 5 6 7 8 9 10 11 12 13 14 15 16 17 18 19 20 21 22 23 24 25 26 27 28 29 30 31 32 33 34 35 36 37 38 39 40 41 42 43 44 45 46 47 48 49 50
000
FPUS82 KCHS 180227
OPUCHS

TEST...KCHS/KSAV Gateway Observations...TEST
National Weather Service Charleston SC
900 PM EST WED JAN 17 2018

NOTE: "fair" indicates few or no clouds below 12,000 feet with no
significant weather and/or obstructions to visibility.

SCZ050-WAZ558-NCZ071-TXZ119-213-PAZ071-DCZ001-FLZ074-172-MI076-
NYZ176-178-MAZ016-IL014-TNZ027-NJZ106-GAZ044-MD014-180300-

...Gateway Observations for Charleston International...

CITY           SKY/WX    TMP DP  RH WIND       PRES   REMARKS
Chas Airport   CLOUDY    37  30  75 NW12      30.23S WCI  29
Seattle        LGT RAIN  51  49  92 S8        29.78S FOG
Charlotte      CLOUDY    24  18  77 NW9       30.29R WCI  14
Dallas DFW     CLOUDY    28   4  35 SE8       30.59S WCI  20
Dallas Love    CLOUDY    29   6  38 SE7       30.62S WCI  22
Philladelphia  CLOUDY    24   8  50 NW15      30.26R WCI  11
Wash National  FAIR      23   8  52 NW15      30.33R WCI  10
Baltimore      FAIR      20   7  57 NW8       30.28F WCI  10
Miami          MOCLDY    66  50  56 W7        30.21R
Detroit        MOCLDY    19   9  65 SW18      30.25F WCI   4
Newark         MOCLDY    24  11  57 NW12      30.20S WCI  13
Laguardia      CLOUDY    26  15  63 NW14      30.18S WCI  14
J F K          CLOUDY    26  17  68 NW16      30.18S WCI  14
Boston Logan   FRZ DRZL  32  29  88 VRB5      30.08S WCI  27
Ft. Lauderdale CLOUDY    62  50  64 NW6       30.20R
Chicago O`Hare FAIR      18   8  65 SW18G26   30.28F WCI   2
Chicago Midway FAIR      18   9  68 SW18G25   30.31F WCI   2
Houston Bush   PTCLDY    31  15  52 N6        30.63R WCI  25
Houston Hobby  FAIR      31  17  56 N7        30.62S WCI  24
Nashville      FAIR      15   7  70 N5        30.59S WCI   8
Atlanta        FAIR      21   9  59 NW15      30.40R WCI   8

$$

GAZ044-118-TXZ119-213-NCZ071-DCZ001-MDZ014-506-PAZ021-071-NJZ106-
NYZ176-178-MAZ106-OHZ011-021-055-MIZ076-KYZ091-ILZ014-INZ047-
MNZ060-ONZ431-180300-

...Gateway Observations for Savannah International...

CITY           SKY/WX    TMP DP  RH WIND       PRES   REMARKS
Savannah Arpt  FAIR      33  13  43 NW18G24   30.32R WCI  22
Atlanta        FAIR      21   9  59 NW15      30.40R WCI   8
Charlotte      CLOUDY    24  18  77 NW9       30.29R WCI  14
Dallas DFW     CLOUDY    28   4  35 SE8       30.59S WCI  20
Houston Bush   PTCLDY    31  15  52 N6        30.63R WCI  25
Wash National  FAIR      23   8  52 NW15      30.33R WCI  10
Wash Dulles    CLOUDY    21   7  54 NW16G23   30.31F WCI   7
Baltimore      FAIR      20   7  57 NW8       30.28F WCI  10
Philadelphia   CLOUDY    24   8  50 NW15      30.26R WCI  11
Newark         MOCLDY    24  11  57 NW12      30.20S WCI  13
Laguardia      CLOUDY    26  15  63 NW14      30.18S WCI  14
J F K          CLOUDY    26  17  68 NW16      30.18S WCI  14
Boston         FRZ DRZL  32  29  88 VRB5      30.08S WCI  27
Pittsburg      FAIR       9   3  77 SW9       30.34F WCI  -4
Akron          FAIR       8   3  80 SW13      30.32F WCI  -8
Cleveland      FAIR      16   7  67 SW12      30.34F WCI   3
Cincinnati     FAIR      14  10  84 SW8       30.46F WCI   3
Columbus       FAIR       8   4  84 SW9       30.43S WCI  -5
Detroit        MOCLDY    19   9  65 SW18      30.25F WCI   4
Chicago O`Hare FAIR      18   8  65 SW18G26   30.28F WCI   2
Minneapolis    FAIR      26  17  68 SW10      30.07F WCI  16
Indianapolis   FAIR      11   5  77 SW10      30.47F WCI  -3
Toronto Canada MOCLDY    19  12  73 SW21      30.10F WCI   3

$$




USA.gov is the U.S. government's official web portal to all federal, state and local government web resources and services.